| time (UTC) | temp C | wind direction | speed KPH | gust KPH | rain 1hr cm | rain 24hr cm | rain mn cm | humidity % | barometer mb |
| 20260503225528 | 21 | 135 | 9.7 | 12.9 | 0.00 | 0.00 | 0.00 | 33 | 1014.0 |
| 20260503225141 | 22 | 139 | 14.5 | 16.1 | 0.00 | 0.00 | 0.00 | 33 | 1014.0 |
| 20260503223120 | 22 | 144 | 8.0 | 12.9 | 0.00 | 0.00 | 0.00 | 35 | 1014.2 |
| 20260503222317 | 22 | 213 | 3.2 | 4.8 | 0.00 | 0.00 | 0.00 | 35 | 1014.4 |
| 20260503221916 | 22 | 182 | 4.8 | 4.8 | 0.00 | 0.00 | 0.00 | 35 | 1014.4 |
| 20260503221557 | 21 | 157 | 1.6 | 11.3 | 0.00 | 0.00 | 0.00 | 35 | 1014.6 |
| 20260503221514 | 21 | 157 | 1.6 | 11.3 | 0.00 | 0.00 | 0.00 | 35 | 1014.6 |
| 20260503221112 | 21 | 186 | 11.3 | 11.3 | 0.00 | 0.00 | 0.00 | 36 | 1014.5 |
| 20260503220711 | 20 | 182 | 11.3 | 11.3 | 0.00 | 0.00 | 0.00 | 35 | 1014.5 |
| 20260503220310 | 21 | 177 | 1.6 | 9.7 | 0.00 | 0.00 | 0.00 | 36 | 1014.5 |
| 20260503215909 | 21 | 135 | 9.7 | 9.7 | 0.00 | 0.00 | 0.00 | 36 | 1014.7 |
| 20260503215107 | 21 | 250 | 4.8 | 6.4 | 0.00 | 0.00 | 0.00 | 36 | 1014.8 |
| 20260503214705 | 21 | 180 | 4.8 | 9.7 | 0.00 | 0.00 | 0.00 | 36 | 1014.8 |
| 20260503214305 | 20 | 199 | 3.2 | 8.0 | 0.00 | 0.00 | 0.00 | 36 | 1014.7 |
| 20260503213903 | 20 | 135 | 9.7 | 11.3 | 0.00 | 0.00 | 0.00 | 36 | 1014.8 |
| 20260503213501 | 20 | 202 | 8.0 | 9.7 | 0.00 | 0.00 | 0.00 | 36 | 1014.8 |
| 20260503213100 | 20 | 182 | 6.4 | 8.0 | 0.00 | 0.00 | 0.00 | 36 | 1014.8 |
| 20260503212659 | 20 | 90 | 1.6 | 8.0 | 0.00 | 0.00 | 0.00 | 36 | 1014.8 |
| 20260503212257 | 20 | 207 | 3.2 | 9.7 | 0.00 | 0.00 | 0.00 | 36 | 1014.8 |
| 20260503211856 | 20 | 277 | 4.8 | 6.4 | 0.00 | 0.00 | 0.00 | 36 | 1014.8 |
| 20260503211455 | 20 | 198 | 4.8 | 11.3 | 0.00 | 0.00 | 0.00 | 36 | 1014.9 |
| 20260503211054 | 20 | 147 | 1.6 | 14.5 | 0.00 | 0.00 | 0.00 | 37 | 1014.9 |
| 20260503210658 | 20 | 184 | 3.2 | 6.4 | 0.00 | 0.00 | 0.00 | 36 | 1014.9 |
| 20260503210251 | 20 | 90 | 1.6 | 8.0 | 0.00 | 0.00 | 0.00 | 36 | 1015.0 |
| 20260503205849 | 20 | 193 | 6.4 | 9.7 | 0.00 | 0.00 | 0.00 | 36 | 1014.9 |
| 20260503205448 | 20 | 186 | 9.7 | 9.7 | 0.00 | 0.00 | 0.00 | 37 | 1014.9 |
| 20260503205047 | 20 | 132 | 3.2 | 8.0 | 0.00 | 0.00 | 0.00 | 37 | 1014.9 |
| 20260503204646 | 20 | 168 | 4.8 | 8.0 | 0.00 | 0.00 | 0.00 | 37 | 1014.9 |
| 20260503204245 | 20 | 58 | 1.6 | 9.7 | 0.00 | 0.00 | 0.00 | 37 | 1014.9 |
| 20260503203442 | 21 | 90 | 0.0 | 8.0 | 0.00 | 0.00 | 0.00 | 38 | 1014.9 |
| 20260503203041 | 21 | 190 | 6.4 | 9.7 | 0.00 | 0.00 | 0.00 | 38 | 1014.8 |
| 20260503202641 | 20 | 160 | 1.6 | 8.0 | 0.00 | 0.00 | 0.00 | 38 | 1014.9 |
| 20260503201838 | 21 | 196 | 4.8 | 6.4 | 0.00 | 0.00 | 0.00 | 39 | 1014.9 |
| 20260503201440 | 20 | 191 | 4.8 | 11.3 | 0.00 | 0.00 | 0.00 | 39 | 1015.1 |
| 20260503201039 | 20 | 135 | 11.3 | 11.3 | 0.00 | 0.00 | 0.00 | 39 | 1015.0 |
| 20260503200633 | 20 | 177 | 3.2 | 8.0 | 0.00 | 0.00 | 0.00 | 39 | 1015.0 |
| 20260503200232 | 20 | 189 | 9.7 | 9.7 | 0.00 | 0.00 | 0.00 | 39 | 1015.1 |
| 20260503195833 | 20 | 186 | 1.6 | 8.0 | 0.00 | 0.00 | 0.00 | 39 | 1015.2 |
| 20260503195430 | 19 | 166 | 4.8 | 9.7 | 0.00 | 0.00 | 0.00 | 40 | 1015.1 |
| 20260503195029 | 19 | 132 | 4.8 | 9.7 | 0.00 | 0.00 | 0.00 | 40 | 1015.2 |
| 20260503194626 | 19 | 180 | 3.2 | 12.9 | 0.00 | 0.00 | 0.00 | 40 | 1015.2 |
| 20260503194226 | 19 | 77 | 1.6 | 8.0 | 0.00 | 0.00 | 0.00 | 40 | 1015.2 |
| 20260503193826 | 19 | 193 | 4.8 | 11.3 | 0.00 | 0.00 | 0.00 | 40 | 1015.2 |
| 20260503193026 | 18 | 123 | 12.9 | 14.5 | 0.00 | 0.00 | 0.00 | 41 | 1015.1 |
| 20260503192622 | 18 | 135 | 4.8 | 11.3 | 0.00 | 0.00 | 0.00 | 41 | 1015.2 |
| 20260503191817 | 18 | 132 | 6.4 | 8.0 | 0.00 | 0.00 | 0.00 | 41 | 1015.2 |
| 20260503191416 | 18 | 163 | 4.8 | 14.5 | 0.00 | 0.00 | 0.00 | 41 | 1015.2 |
| 20260503191015 | 18 | 114 | 1.6 | 11.3 | 0.00 | 0.00 | 0.00 | 42 | 1015.2 |
| 20260503190614 | 18 | 105 | 1.6 | 8.0 | 0.00 | 0.00 | 0.00 | 42 | 1015.3 |
| 20260503190214 | 18 | 123 | 6.4 | 14.5 | 0.00 | 0.00 | 0.00 | 42 | 1015.3 |
| 20260503185414 | 17 | 135 | 11.3 | 14.5 | 0.00 | 0.00 | 0.00 | 43 | 1015.4 |
| 20260503185009 | 18 | 135 | 12.9 | 16.1 | 0.00 | 0.00 | 0.00 | 43 | 1015.4 |
| 20260503184607 | 18 | 210 | 3.2 | 9.7 | 0.00 | 0.00 | 0.00 | 43 | 1015.3 |
| 20260503183805 | 18 | 135 | 9.7 | 12.9 | 0.00 | 0.00 | 0.00 | 45 | 1015.4 |
| 20260503183403 | 19 | 132 | 8.0 | 8.0 | 0.00 | 0.00 | 0.00 | 45 | 1015.4 |
| 20260503183002 | 19 | 191 | 0.0 | 8.0 | 0.00 | 0.00 | 0.00 | 46 | 1015.4 |
| 20260503181759 | 18 | 190 | 8.0 | 8.0 | 0.00 | 0.00 | 0.00 | 47 | 1015.6 |
| 20260503181359 | 17 | 215 | 0.0 | 11.3 | 0.00 | 0.00 | 0.00 | 48 | 1015.5 |
| 20260503181357 | 17 | 215 | 0.0 | 11.3 | 0.00 | 0.00 | 0.00 | 48 | 1015.5 |
| 20260503180955 | 18 | 135 | 4.8 | 4.8 | 0.00 | 0.00 | 0.00 | 48 | 1015.7 |
| 20260503180153 | 17 | 76 | 3.2 | 3.2 | 0.00 | 0.00 | 0.00 | 48 | 1015.8 |
| 20260503175752 | 16 | 40 | 0.0 | 1.6 | 0.00 | 0.00 | 0.00 | 49 | 1015.9 |
| 20260503174549 | 16 | 180 | 1.6 | 4.8 | 0.00 | 0.00 | 0.00 | 49 | 1016.0 |
| 20260503174147 | 16 | 202 | 4.8 | 4.8 | 0.00 | 0.00 | 0.00 | 50 | 1016.0 |
| 20260503173345 | 16 | 177 | 3.2 | 6.4 | 0.00 | 0.00 | 0.00 | 50 | 1016.0 |
| 20260503172543 | 16 | 281 | 6.4 | 9.7 | 0.00 | 0.00 | 0.00 | 51 | 1015.9 |
| 20260503171823 | 16 | 310 | 4.8 | 4.8 | 0.00 | 0.00 | 0.00 | 51 | 1015.8 |
| 20260503171742 | 16 | 310 | 4.8 | 4.8 | 0.00 | 0.00 | 0.00 | 51 | 1015.8 |
| 20260503171338 | 16 | 230 | 1.6 | 6.4 | 0.00 | 0.00 | 0.00 | 52 | 1015.8 |
| 20260503170939 | 16 | 225 | 4.8 | 4.8 | 0.00 | 0.00 | 0.00 | 52 | 1015.7 |
| 20260503170536 | 16 | 230 | 0.0 | 4.8 | 0.00 | 0.00 | 0.00 | 52 | 1015.7 |
| 20260503170135 | 15 | 252 | 3.2 | 4.8 | 0.00 | 0.00 | 0.00 | 53 | 1015.7 |
| 20260503160115 | 14 | 229 | 0.0 | 3.2 | 0.00 | 0.00 | 0.00 | 55 | 1015.2 |
| 20260503150458 | 14 | 163 | 1.6 | 4.8 | 0.00 | 0.00 | 0.00 | 55 | 1014.8 |
| 20260503130419 | 14 | 97 | 0.0 | 6.4 | 0.00 | 0.00 | 0.00 | 55 | 1013.6 |
| 20260503110744 | 14 | 175 | 3.2 | 3.2 | 0.00 | 0.00 | 0.00 | 55 | 1013.9 |
| 20260503110341 | 14 | 180 | 1.6 | 4.8 | 0.00 | 0.00 | 0.00 | 55 | 1013.9 |
| 20260503090301 | 14 | 191 | 1.6 | 1.6 | 0.00 | 0.00 | 0.00 | 56 | 1014.2 |
| 20260503081045 | 14 | 200 | 4.8 | 8.0 | 0.00 | 0.00 | 0.00 | 56 | 1014.4 |
| 20260503080643 | 14 | 173 | 6.4 | 9.7 | 0.00 | 0.00 | 0.00 | 56 | 1014.4 |
| 20260503072625 | 14 | 148 | 1.6 | 4.8 | 0.00 | 0.00 | 0.00 | 56 | 1014.1 |
| 20260503072226 | 14 | 153 | 1.6 | 6.4 | 0.00 | 0.00 | 0.00 | 56 | 1014.0 |
| 20260503071821 | 14 | 166 | 1.6 | 3.2 | 0.00 | 0.00 | 0.00 | 56 | 1014.0 |
| 20260503071420 | 14 | 168 | 3.2 | 6.4 | 0.00 | 0.00 | 0.00 | 56 | 1014.0 |
| 20260503071019 | 14 | 182 | 4.8 | 6.4 | 0.00 | 0.00 | 0.00 | 56 | 1013.8 |
| 20260503070618 | 14 | 186 | 4.8 | 11.3 | 0.00 | 0.00 | 0.00 | 56 | 1013.7 |
| 20260503070217 | 14 | 92 | 9.7 | 11.3 | 0.00 | 0.00 | 0.00 | 56 | 1013.8 |
| 20260503053749 | 14 | 147 | 0.0 | 6.4 | 0.00 | 0.00 | 0.00 | 56 | 1014.0 |
| 20260503053348 | 14 | 137 | 6.4 | 11.3 | 0.00 | 0.00 | 0.00 | 55 | 1014.0 |
| 20260503052947 | 14 | 127 | 8.0 | 11.3 | 0.00 | 0.00 | 0.00 | 55 | 1014.0 |
| 20260503052546 | 14 | 114 | 8.0 | 11.3 | 0.00 | 0.00 | 0.00 | 55 | 1013.9 |
| 20260503052145 | 14 | 135 | 9.7 | 11.3 | 0.00 | 0.00 | 0.00 | 55 | 1014.1 |
| 20260503051744 | 14 | 135 | 6.4 | 11.3 | 0.00 | 0.00 | 0.00 | 55 | 1014.1 |
| 20260503051342 | 14 | 135 | 9.7 | 11.3 | 0.00 | 0.00 | 0.00 | 55 | 1014.0 |
| 20260503050138 | 14 | 157 | 0.0 | 9.7 | 0.00 | 0.00 | 0.00 | 54 | 1014.0 |
| 20260503043731 | 14 | 123 | 6.4 | 9.7 | 0.00 | 0.00 | 0.00 | 53 | 1013.6 |
| 20260503042920 | 14 | 135 | 6.4 | 9.7 | 0.00 | 0.00 | 0.00 | 53 | 1013.5 |
| 20260503042519 | 14 | 123 | 6.4 | 9.7 | 0.00 | 0.00 | 0.00 | 52 | 1013.4 |
| 20260503042118 | 14 | 130 | 9.7 | 9.7 | 0.00 | 0.00 | 0.00 | 52 | 1013.4 |
| 20260503041721 | 14 | 135 | 8.0 | 11.3 | 0.00 | 0.00 | 0.00 | 52 | 1013.2 |
| 20260503041316 | 14 | 135 | 8.0 | 11.3 | 0.00 | 0.00 | 0.00 | 52 | 1013.3 |
| 20260503040513 | 15 | 141 | 9.7 | 9.7 | 0.00 | 0.00 | 0.00 | 51 | 1013.2 |
| 20260503040113 | 15 | 135 | 6.4 | 9.7 | 0.00 | 0.00 | 0.00 | 51 | 1013.2 |
| 20260503035305 | 15 | 135 | 6.4 | 6.4 | 0.00 | 0.00 | 0.00 | 50 | 1013.0 |
| 20260503034902 | 15 | 135 | 4.8 | 4.8 | 0.00 | 0.00 | 0.00 | 50 | 1012.9 |
| 20260503034501 | 15 | 130 | 6.4 | 12.9 | 0.00 | 0.00 | 0.00 | 50 | 1012.8 |
| 20260503034059 | 15 | 135 | 8.0 | 12.9 | 0.00 | 0.00 | 0.00 | 49 | 1012.8 |
| 20260503033658 | 15 | 112 | 9.7 | 9.7 | 0.00 | 0.00 | 0.00 | 49 | 1012.7 |
| 20260503033257 | 15 | 130 | 11.3 | 16.1 | 0.00 | 0.00 | 0.00 | 48 | 1012.6 |
| 20260503032459 | 15 | 101 | 9.7 | 12.9 | 0.00 | 0.00 | 0.00 | 47 | 1012.3 |
| 20260503031651 | 15 | 105 | 4.8 | 11.3 | 0.00 | 0.00 | 0.00 | 46 | 1012.3 |
| 20260503031250 | 15 | 126 | 11.3 | 12.9 | 0.00 | 0.00 | 0.00 | 46 | 1012.2 |
| 20260503030849 | 16 | 110 | 11.3 | 11.3 | 0.00 | 0.00 | 0.00 | 45 | 1012.2 |
| 20260503030448 | 16 | 94 | 9.7 | 12.9 | 0.00 | 0.00 | 0.00 | 45 | 1012.2 |
| 20260503025244 | 16 | 119 | 8.0 | 19.3 | 0.00 | 0.00 | 0.00 | 43 | 1011.9 |
| 20260503024443 | 17 | 108 | 14.5 | 16.1 | 0.00 | 0.00 | 0.00 | 42 | 1011.7 |
| 20260503023639 | 17 | 135 | 14.5 | 25.7 | 0.00 | 0.00 | 0.00 | 41 | 1011.6 |
| 20260503023002 | 17 | 132 | 24.1 | 29.0 | 0.00 | 0.00 | 0.00 | 40 | 1011.5 |
| 20260503022837 | 17 | 132 | 24.1 | 29.0 | 0.00 | 0.00 | 0.00 | 40 | 1011.5 |
| 20260503022435 | 17 | 137 | 16.1 | 16.1 | 0.00 | 0.00 | 0.00 | 39 | 1011.5 |
| 20260503022034 | 18 | 130 | 9.7 | 16.1 | 0.00 | 0.00 | 0.00 | 38 | 1011.4 |
| 20260503021632 | 18 | 121 | 9.7 | 14.5 | 0.00 | 0.00 | 0.00 | 38 | 1011.3 |
| 20260503021231 | 18 | 153 | 3.2 | 14.5 | 0.00 | 0.00 | 0.00 | 38 | 1011.3 |
| 20260503020831 | 19 | 132 | 11.3 | 16.1 | 0.00 | 0.00 | 0.00 | 37 | 1011.3 |
| 20260503020429 | 19 | 135 | 11.3 | 19.3 | 0.00 | 0.00 | 0.00 | 36 | 1011.3 |
| 20260503020027 | 20 | 139 | 9.7 | 16.1 | 0.00 | 0.00 | 0.00 | 36 | 1011.2 |
| 20260503015626 | 20 | 135 | 12.9 | 22.5 | 0.00 | 0.00 | 0.00 | 36 | 1011.2 |
| 20260503014824 | 21 | 135 | 25.7 | 25.7 | 0.00 | 0.00 | 0.00 | 35 | 1011.2 |
| 20260503014422 | 21 | 115 | 17.7 | 22.5 | 0.00 | 0.00 | 0.00 | 34 | 1011.2 |
| 20260503014020 | 21 | 123 | 19.3 | 25.7 | 0.00 | 0.00 | 0.00 | 34 | 1011.2 |
| 20260503013619 | 22 | 123 | 14.5 | 20.9 | 0.00 | 0.00 | 0.00 | 34 | 1011.2 |
| 20260503013218 | 22 | 121 | 19.3 | 19.3 | 0.00 | 0.00 | 0.00 | 33 | 1011.1 |
| 20260503012817 | 22 | 137 | 19.3 | 19.3 | 0.00 | 0.00 | 0.00 | 33 | 1011.2 |
| 20260503012014 | 23 | 150 | 12.9 | 17.7 | 0.00 | 0.00 | 0.00 | 32 | 1011.3 |
| 20260503011212 | 23 | 78 | 16.1 | 16.1 | 0.00 | 0.00 | 0.00 | 32 | 1011.2 |
| 20260503010411 | 24 | 135 | 14.5 | 19.3 | 0.00 | 0.00 | 0.00 | 31 | 1011.1 |
| 20260503010009 | 24 | 137 | 11.3 | 17.7 | 0.00 | 0.00 | 0.00 | 31 | 1011.0 |
| 20260503005610 | 24 | 145 | 11.3 | 19.3 | 0.00 | 0.00 | 0.00 | 31 | 1011.1 |
| 20260503005205 | 24 | 135 | 3.2 | 16.1 | 0.00 | 0.00 | 0.00 | 31 | 1011.1 |
| 20260503004804 | 24 | 153 | 4.8 | 14.5 | 0.00 | 0.00 | 0.00 | 31 | 1011.1 |
| 20260503004002 | 25 | 135 | 14.5 | 17.7 | 0.00 | 0.00 | 0.00 | 30 | 1011.1 |
| 20260503003600 | 25 | 139 | 11.3 | 16.1 | 0.00 | 0.00 | 0.00 | 31 | 1011.2 |
| 20260503003159 | 25 | 122 | 9.7 | 19.3 | 0.00 | 0.00 | 0.00 | 30 | 1011.2 |
| 20260503002001 | 25 | 141 | 9.7 | 14.5 | 0.00 | 0.00 | 0.00 | 30 | 1011.2 |
| 20260503001554 | 25 | 144 | 9.7 | 11.3 | 0.00 | 0.00 | 0.00 | 30 | 1011.2 |
| 20260503001153 | 26 | 135 | 11.3 | 17.7 | 0.00 | 0.00 | 0.00 | 30 | 1011.2 |
| 20260503000751 | 26 | 120 | 4.8 | 20.9 | 0.00 | 0.00 | 0.00 | 30 | 1011.2 |
| 20260502235948 | 26 | 108 | 16.1 | 16.1 | 0.00 | 0.00 | 0.00 | 30 | 1011.1 |
| 20260502235548 | 26 | 135 | 14.5 | 17.7 | 0.00 | 0.00 | 0.00 | 30 | 1011.3 |
| 20260502235146 | 26 | 227 | 3.2 | 12.9 | 0.00 | 0.00 | 0.00 | 30 | 1011.3 |
| 20260502234745 | 26 | 135 | 9.7 | 14.5 | 0.00 | 0.00 | 0.00 | 30 | 1011.4 |
| 20260502233942 | 25 | 130 | 6.4 | 16.1 | 0.00 | 0.00 | 0.00 | 30 | 1011.4 |
| 20260502233549 | 25 | 135 | 14.5 | 16.1 | 0.00 | 0.00 | 0.00 | 30 | 1011.4 |
| 20260502232738 | 25 | 105 | 11.3 | 30.6 | 0.00 | 0.00 | 0.00 | 29 | 1011.5 |
| 20260502232338 | 26 | 132 | 6.4 | 25.7 | 0.00 | 0.00 | 0.00 | 30 | 1011.6 |
| 20260502231940 | 26 | 135 | 12.9 | 12.9 | 0.00 | 0.00 | 0.00 | 29 | 1011.5 |
| 20260502231535 | 26 | 153 | 4.8 | 14.5 | 0.00 | 0.00 | 0.00 | 29 | 1011.6 |
| 20260502231133 | 26 | 126 | 17.7 | 20.9 | 0.00 | 0.00 | 0.00 | 29 | 1011.6 |
| 20260502230732 | 26 | 135 | 12.9 | 19.3 | 0.00 | 0.00 | 0.00 | 29 | 1011.7 |
| 20260502230331 | 25 | 135 | 22.5 | 29.0 | 0.00 | 0.00 | 0.00 | 29 | 1011.7 |
| 20260502225929 | 26 | 121 | 12.9 | 16.1 | 0.00 | 0.00 | 0.00 | 29 | 1011.8 |